Location: Acton
(51.4942°N, 0.2232°W)
Time: 13:01:55
(UTC+00:00)

Okean 1-7 Rocket - Pass Details

Date: 18 January 2021
Orbit: 615 x 650 km, 82.5° (Epoch: 28 February)

Event Time Altitude Azimuth Distance (km) Brightness Sun altitude
Rises 18:29:49 0° 179° (S) 2,940 7.1 -18.6°
Reaches altitude 10° 18:32:04 10° 177° (S) 2,040 6.3 -19.0°
Maximum altitude 18:36:32 64° 97° (E) 724 3.6 -19.6°
Enters shadow 18:39:10 24° 22° (NNE) 1,336 5.0 -20.0°
